Wind_Speed
18 14 15 16 15 15 15 15 14 15 15 18 19 17 15 13 10 9 11 11 11 11 10 15 23 23 24 21 21 21 15 21 17 16 15 14 17 14 17 17 16 14 15
14 13 14 15 16 16 18 18 16 18 22 21 22 23 17 14 14 12 12 12 9 9 11 12 16 22 20 20 20 21 20 21 20 21 22 18 16 21 14 20 19 23 19
5 8 12 11 12 14 17 18 14 15 18 17 17 21 21 17 16 15 14 15 13 11 11 7 7 20 17 18 20 22 19 19 19 20 21 28 26 27 21 24 23 23 18
3 5 6 7 8 9 12 14 15 17 17 17 17 18 21 21 20 19 17 18 18 16 14 13 12 16 20 22 23 23 23 23 26 27 26 29 28 32 28 25 28 25 22
5 8 10 11 13 14 14 15 15 16 16 18 19 20 21 23 23 23 25 25 26 25 20 20 21 21 21 20 20 21 23 27 30 35 40 35 34 34 35 26 24 26 22
9 11 14 17 18 19 20 20 20 19 20 22 22 23 22 22 22 25 26 28 31 22 15 21 23 25 26 27 27 28 25 25 25 28 30 39 34 32 34 35 32 30 26
13 16 17 19 21 23 22 22 23 24 24 25 24 25 24 24 23 22 22 25 25 24 22 23 23 26 24 26 29 29 29 25 27 23 23 21 26 29 28 32 32 31 30
20 20 20 21 21 23 23 24 26 28 28 29 28 27 28 27 27 28 26 24 26 27 24 24 25 27 30 30 32 32 30 30 29 29 31 30 32 30 31 35 36 37 36
22 21 20 20 19 20 22 23 23 24 26 27 28 29 30 31 31 31 32 30 29 29 29 28 28 28 27 28 32 33 32 31 33 34 33 33 36 36 35 36 41 43 38
22 21 19 18 19 20 19 19 20 20 21 21 21 22 25 27 28 28 30 32 32 31 31 31 29 30 30 32 34 34 35 33 36 36 36 37 39 40 41 44 44 44 44
19 20 20 19 18 17 17 18 19 19 20 21 22 23 26 29 29 30 31 31 32 34 35 35 35 36 36 36 37 38 39 39 41 43 43 44 44 43 45 49 52 51 51
18 18 17 17 16 15 15 14 14 14 14 15 16 18 22 23 23 26 29 31 31 33 34 33 33 35 37 38 39 39 38 39 41 41 42 41 40 44 52 56 56 56 57
17 17 16 14 13 12 13 13 14 15 16 16 16 18 22 24 23 23 23 25 26 30 32 34 30 33 31 34 36 38 38 38 39 41 40 39 39 40 35 43 59 57 55
16 16 14 11 11 13 13 13 14 16 17 18 18 18 19 23 23 24 24 26 26 26 26 28 32 32 33 33 35 32 34 34 36 37 39 39 39 37 38 39 45 62 62
15 12 12 11 11 12 13 15 15 15 13 14 14 15 15 17 18 18 20 21 23 25 26 29 30 32 32 33 34 35 38 37 36 35 36 38 37 40 37 30 29 46 54
11 10 10 12 14 15 14 14 12 12 13 14 15 16 17 17 17 18 19 20 20 21 22 23 24 25 27 29 33 32 33 35 36 33 34 37 37 35 35 30 37 42 49
10 12 12 14 13 11 10 11 12 14 15 14 14 15 14 15 17 18 20 21 22 20 21 22 23 23 24 23 23 25 28 31 34 37 35 35 34 34 30 32 38 38 47
12 13 11 9 8 8 9 10 12 13 14 14 15 17 18 19 19 19 19 20 20 20 19 21 21 21 21 24 24 27 32 31 33 35 37 39 32 32 31 34 37 45 45
12 11 8 7 8 9 11 11 13 13 14 15 15 16 18 21 23 24 24 23 21 20 20 20 21 20 23 23 25 28 28 29 30 32 34 38 38 45 36 36 35 32 47
11 10 9 9 9 11 13 15 15 16 20 20 20 20 21 22 23 23 23 22 22 22 24 24 24 25 26 26 27 27 27 28 28 29 31 34 33 36 44 38 37 41 28
11 10 11 10 12 13 14 14 14 17 20 23 24 25 25 25 24 22 20 21 21 22 23 24 24 25 25 26 28 30 32 32 32 32 32 32 31 33 32 36 43 49 47
11 11 11 12 14 13 13 14 15 18 20 21 24 26 25 25 25 24 22 20 21 22 23 23 23 23 24 24 24 26 28 30 32 33 33 33 33 30 29 31 32 35 35
11 11 11 10 12 14 16 18 20 21 23 23 24 25 23 22 23 22 23 21 22 23 22 21 21 22 23 24 25 25 26 26 28 29 31 34 35 34 31 28 32 30 27
11 12 12 11 12 15 16 18 17 18 20 21 22 22 21 20 22 23 23 22 21 23 25 27 25 23 21 22 25 25 26 27 28 26 28 29 30 29 29 29 28 31 30
9 10 11 12 15 17 18 21 22 23 24 25 23 22 23 21 22 24 24 22 21 23 24 27 27 26 27 28 27 26 26 27 28 28 28 30 28 27 27 29 28 25 24
8 8 9 14 15 14 19 22 21 21 23 24 23 22 23 23 23 24 25 24 24 24 27 29 27 27 27 27 28 28 27 26 26 27 26 28 25 22 20 24 25 27 24
Wind_Direction
299 271 260 267 271 272 271 270 275 278 283 286 297 302 308 301 295 291 292 294 306 317 302 273 246 236 235 238 236 236 251 234 239 230 251 251 265 249 287 287 289 301 299
285 248 260 273 281 281 281 274 272 278 274 278 281 291 299 300 295 285 274 276 281 297 315 314 249 227 227 239 242 239 241 239 241 229 249 244 264 265 280 278 280 290 281
254 259 265 281 298 293 278 273 267 277 274 273 276 279 288 291 288 284 275 266 262 259 273 303 258 220 235 257 253 252 249 245 245 244 245 245 249 257 263 259 273 277 284
258 267 283 273 280 289 297 285 283 289 292 291 286 278 280 280 280 283 280 274 267 255 252 256 241 237 243 249 247 245 250 250 251 250 250 241 247 256 261 255 263 274 279
308 312 312 304 298 292 292 296 296 289 287 285 286 286 283 280 280 280 283 270 252 238 243 245 252 251 244 243 250 249 251 257 263 266 261 255 241 244 249 256 262 266 265
298 288 287 288 289 286 285 283 281 282 282 284 285 286 284 282 280 277 278 279 286 296 294 251 253 270 264 257 256 253 251 259 271 278 276 241 235 247 255 253 267 258 251
288 285 280 276 275 276 276 275 274 274 275 277 280 280 282 283 279 280 279 281 285 285 281 265 235 255 266 269 271 272 257 253 269 275 270 246 243 249 257 249 261 264 255
299 294 290 287 284 281 279 275 272 271 272 272 273 274 276 276 276 277 276 275 279 280 278 276 271 264 261 265 271 271 271 264 265 269 265 258 256 254 250 250 252 258 257
311 308 303 298 293 288 284 282 281 278 275 273 272 271 271 270 272 274 274 274 271 273 276 274 274 271 270 268 267 266 261 256 257 264 262 263 260 251 247 247 248 248 250
315 312 309 303 296 291 291 286 284 283 279 276 273 271 270 269 268 269 268 268 268 267 265 267 268 267 263 259 258 260 262 265 265 264 258 258 262 259 251 246 244 249 253
312 310 308 304 299 296 292 291 289 286 285 281 278 275 268 266 269 268 265 261 262 263 263 263 260 259 260 261 263 266 269 272 273 271 269 267 263 256 254 249 249 246 246
313 309 302 297 295 294 292 291 291 293 295 293 289 285 281 280 279 279 279 277 271 267 270 273 271 269 267 267 267 267 267 268 270 273 271 271 265 271 262 252 249 249 249
312 305 299 296 297 294 294 297 297 295 291 289 286 281 281 281 280 277 275 275 276 275 273 270 271 269 268 271 267 267 266 267 271 271 273 272 267 278 270 258 251 249 248
308 302 302 302 297 298 303 303 300 298 300 299 299 297 294 293 294 294 291 287 282 278 276 275 273 275 277 280 272 269 263 265 268 270 274 271 269 277 274 278 255 244 246
310 306 300 311 312 311 310 308 307 306 306 301 304 306 303 300 304 304 300 293 289 288 285 284 284 282 278 274 272 266 258 263 265 269 274 276 276 269 278 265 248 237 250
315 312 312 314 313 313 315 316 319 320 313 320 325 325 320 321 327 330 326 316 313 308 302 298 293 288 287 285 281 276 269 265 264 270 269 272 276 277 275 263 253 247 253
313 314 317 312 316 321 321 320 327 323 321 328 332 331 333 337 334 331 327 325 319 313 307 304 298 295 293 288 288 286 279 274 270 266 276 274 272 273 270 256 253 259 257
311 313 315 317 310 308 313 321 324 322 321 332 334 337 334 334 331 327 326 325 323 321 316 310 310 304 296 294 287 286 288 288 283 275 271 272 272 275 270 263 262 259 258
313 314 317 316 314 319 324 325 325 327 325 331 337 338 328 324 323 323 322 319 314 305 302 302 303 301 302 300 296 296 294 292 291 288 282 281 270 263 275 265 278 280 270
315 316 315 317 321 324 328 332 333 327 325 332 329 329 324 322 321 318 317 317 315 312 309 307 303 300 297 294 292 292 292 292 293 290 288 283 286 280 270 273 271 270 287
318 316 318 323 324 326 328 331 330 328 326 326 326 326 328 326 324 323 323 321 320 317 315 313 310 307 305 299 290 289 290 291 291 290 289 288 288 281 281 273 265 269 271
313 312 315 319 318 325 329 328 329 328 328 329 328 328 330 328 326 327 326 326 322 320 318 317 318 315 310 310 306 303 301 295 299 293 289 285 284 285 285 281 279 275 282
302 303 306 315 324 332 333 333 334 334 334 335 329 327 325 323 320 325 324 329 327 326 324 322 321 323 321 318 314 311 308 304 308 306 302 292 285 280 282 283 278 276 275
295 296 308 325 326 327 328 333 342 337 332 330 324 324 326 328 321 326 327 328 326 324 326 324 326 327 324 320 319 319 315 313 307 309 312 315 291 291 281 277 274 276 272
290 307 321 324 320 326 337 340 342 337 335 333 331 329 329 326 320 318 318 324 324 321 322 319 325 328 325 325 324 322 318 317 312 312 308 310 311 292 288 271 269 269 272
304 309 311 309 323 340 336 335 336 336 335 330 328 330 327 321 319 316 320 321 322 321 317 314 321 318 317 318 319 320 320 317 315 310 308 317 317 309 298 286 281 275 275
Height
3186 3188 3191 3192 3194 3195 3196 3197 3197 3199 3200 3200 3198 3200 3202 3202 3202 3200 3201 3201 3200 3198 3198 3198 3200 3201 3204 3206 3208 3209 3211 3212 3213 3212 3215 3214 3214 3215 3217 3218 3220 3220 3220
3185 3186 3189 3190 3191 3192 3193 3194 3193 3195 3196 3197 3196 3195 3197 3197 3198 3198 3198 3197 3196 3195 3195 3194 3195 3197 3200 3202 3204 3206 3207 3209 3210 3211 3212 3211 3209 3211 3211 3213 3215 3215 3217
3185 3185 3186 3186 3187 3188 3188 3189 3191 3190 3192 3192 3192 3191 3191 3193 3193 3193 3194 3192 3191 3191 3191 3192 3192 3194 3197 3198 3199 3200 3202 3204 3205 3206 3207 3208 3207 3208 3208 3208 3209 3211 3212
3182 3183 3183 3184 3184 3185 3184 3183 3183 3184 3185 3185 3186 3187 3186 3187 3188 3188 3188 3187 3187 3188 3189 3190 3189 3190 3192 3193 3193 3194 3195 3196 3197 3198 3199 3202 3204 3202 3203 3203 3203 3203 3205
3180 3180 3180 3181 3181 3180 3180 3179 3178 3179 3180 3179 3179 3180 3180 3180 3181 3182 3181 3181 3177 3177 3179 3181 3183 3184 3185 3185 3185 3186 3187 3188 3189 3189 3190 3191 3193 3195 3196 3198 3198 3200 3199
3179 3179 3179 3178 3176 3176 3176 3175 3174 3174 3174 3174 3174 3174 3173 3173 3175 3175 3175 3170 3167 3159 3173 3175 3177 3178 3180 3180 3179 3179 3179 3180 3180 3178 3175 3172 3184 3187 3190 3191 3191 3193 3192
3176 3175 3175 3174 3173 3172 3171 3170 3169 3169 3169 3168 3169 3167 3167 3167 3168 3167 3168 3167 3166 3165 3167 3169 3172 3172 3173 3172 3171 3158 3166 3169 3172 3171 3170 3174 3178 3181 3182 3183 3183 3184 3186
3171 3170 3168 3167 3166 3164 3164 3163 3162 3162 3162 3162 3162 3161 3161 3161 3160 3160 3161 3161 3159 3159 3160 3160 3160 3161 3162 3162 3160 3160 3159 3160 3163 3164 3164 3166 3169 3172 3173 3174 3175 3176 3178
3165 3163 3161 3160 3159 3157 3156 3155 3155 3155 3154 3154 3154 3154 3153 3153 3153 3152 3152 3153 3153 3152 3151 3151 3151 3151 3152 3152 3150 3150 3150 3152 3154 3153 3154 3156 3158 3160 3161 3163 3163 3164 3166
3158 3157 3155 3154 3153 3151 3150 3149 3148 3147 3147 3146 3146 3145 3144 3143 3143 3144 3143 3141 3140 3142 3141 3141 3142 3142 3141 3140 3139 3139 3139 3142 3142 3142 3143 3144 3146 3147 3150 3149 3151 3151 3154
3155 3152 3150 3148 3147 3146 3144 3143 3141 3141 3140 3139 3137 3136 3134 3132 3133 3133 3132 3132 3131 3130 3130 3131 3130 3130 3131 3131 3132 3132 3132 3131 3131 3130 3131 3131 3133 3134 3134 3135 3137 3138 3139
3150 3148 3146 3145 3143 3141 3139 3137 3136 3136 3135 3134 3132 3130 3127 3126 3126 3125 3124 3123 3123 3123 3122 3121 3121 3121 3122 3122 3122 3122 3122 3120 3118 3117 3117 3118 3119 3120 3120 3121 3124 3125 3127
3145 3143 3142 3140 3139 3137 3135 3134 3133 3132 3130 3129 3128 3126 3121 3119 3120 3118 3117 3115 3114 3113 3113 3112 3112 3112 3111 3111 3111 3110 3110 3109 3107 3105 3105 3106 3106 3104 3102 3103 3105 3107 3110
3140 3139 3138 3137 3135 3133 3132 3131 3129 3127 3125 3123 3121 3120 3117 3112 3111 3110 3110 3108 3106 3105 3105 3103 3102 3101 3099 3099 3098 3098 3097 3097 3095 3095 3093 3092 3092 3091 3089 3086 3084 3090 3092
3136 3135 3134 3132 3131 3129 3128 3127 3125 3123 3122 3120 3118 3116 3112 3108 3105 3104 3102 3099 3097 3096 3095 3092 3091 3090 3089 3087 3086 3085 3085 3084 3083 3084 3082 3080 3079 3079 3078 3075 3073 3077 3078
3133 3132 3131 3129 3127 3126 3124 3122 3121 3119 3117 3115 3114 3111 3108 3105 3102 3100 3098 3094 3092 3089 3087 3085 3083 3081 3079 3078 3075 3074 3074 3073 3072 3071 3070 3069 3068 3067 3067 3067 3066 3067 3069
3131 3129 3128 3126 3124 3123 3121 3120 3118 3116 3114 3113 3111 3108 3105 3102 3099 3096 3093 3089 3086 3084 3081 3078 3076 3074 3071 3069 3067 3064 3063 3062 3061 3060 3059 3058 3058 3057 3057 3057 3059 3058 3058
3129 3127 3126 3124 3122 3121 3120 3118 3115 3113 3110 3109 3106 3103 3099 3097 3095 3093 3090 3087 3082 3078 3075 3073 3070 3067 3065 3062 3060 3058 3056 3053 3051 3049 3049 3047 3047 3046 3046 3047 3047 3047 3047
3126 3124 3123 3121 3119 3118 3116 3114 3111 3107 3105 3104 3102 3099 3096 3093 3090 3087 3084 3081 3077 3074 3071 3068 3064 3061 3058 3056 3053 3051 3047 3045 3042 3039 3037 3036 3036 3035 3034 3034 3032 3033 3032
3122 3120 3119 3118 3117 3115 3112 3110 3107 3104 3101 3102 3099 3097 3093 3089 3086 3082 3079 3075 3072 3068 3064 3061 3058 3054 3052 3049 3045 3042 3039 3037 3034 3032 3029 3026 3024 3024 3024 3024 3023 3021 3020
3118 3117 3116 3115 3114 3112 3110 3108 3106 3103 3099 3094 3093 3089 3085 3082 3079 3076 3072 3068 3065 3062 3058 3055 3051 3048 3044 3041 3037 3034 3030 3027 3024 3022 3019 3016 3015 3013 3011 3010 3011 3010 3010
3115 3114 3113 3112 3110 3109 3107 3105 3103 3100 3096 3092 3088 3084 3081 3076 3073 3069 3066 3063 3060 3056 3053 3049 3045 3042 3038 3034 3030 3025 3021 3018 3015 3013 3009 3006 3004 3003 3001 2998 2997 2996 2995
3113 3112 3111 3109 3107 3106 3104 3102 3099 3096 3092 3089 3085 3081 3078 3074 3069 3066 3061 3059 3054 3050 3047 3044 3040 3037 3032 3028 3023 3019 3015 3011 3007 3003 2999 2996 2994 2993 2992 2989 2988 2988 2987
3110 3108 3108 3107 3106 3104 3102 3099 3096 3093 3090 3086 3082 3077 3073 3069 3064 3060 3056 3053 3050 3046 3041 3037 3034 3031 3028 3023 3018 3014 3009 3005 3001 2997 2992 2987 2984 2982 2980 2980 2979 2977 2977
3108 3106 3105 3103 3102 3100 3097 3094 3092 3089 3085 3081 3076 3072 3068 3064 3060 3056 3052 3048 3045 3041 3037 3032 3028 3025 3020 3016 3012 3008 3004 2999 2994 2990 2985 2981 2976 2972 2970 2969 2969 2969 2969
3105 3104 3102 3100 3099 3097 3095 3092 3089 3085 3080 3076 3072 3067 3064 3061 3057 3052 3047 3043 3039 3035 3031 3026 3023 3019 3015 3011 3006 3002 2998 2993 2989 2984 2979 2975 2970 2967 2963 2961 2959 2959 2959